| time (UTC) | temp F | wind direction | speed MPH | gust MPH | rain 1hr in | rain 24hr in | rain mn in | humidity % | barometer mb |
| 20260502160236 | 65 | 57 | 1.0 | 2.0 | 0.00 | 0.00 | 0.00 | 27 | 1021.7 |
| 20260502152206 | 63 | 112 | 1.0 | 6.0 | 0.00 | 0.00 | 0.00 | 28 | 1021.7 |
| 20260502151703 | 62 | 117 | 1.0 | 3.0 | 0.00 | 0.00 | 0.00 | 29 | 1021.7 |
| 20260502151200 | 62 | 79 | 1.0 | 3.0 | 0.00 | 0.00 | 0.00 | 29 | 1021.8 |
| 20260502150658 | 62 | 81 | 2.0 | 4.0 | 0.00 | 0.00 | 0.00 | 29 | 1021.8 |
| 20260502150154 | 62 | 81 | 2.0 | 3.0 | 0.00 | 0.00 | 0.00 | 30 | 1021.7 |
| 20260502140117 | 57 | 177 | 3.0 | 6.0 | 0.00 | 0.00 | 0.00 | 38 | 1021.8 |
| 20260502130543 | 49 | 277 | 1.0 | 2.0 | 0.00 | 0.00 | 0.00 | 45 | 1021.5 |
| 20260502123526 | 47 | 10 | 0.0 | 1.0 | 0.00 | 0.00 | 0.00 | 58 | 1021.2 |
| 20260502123022 | 47 | 345 | 1.0 | 1.0 | 0.00 | 0.00 | 0.00 | 59 | 1021.2 |
| 20260502122519 | 47 | 36 | 0.0 | 0.0 | 0.00 | 0.00 | 0.00 | 60 | 1021.2 |
| 20260502122016 | 48 | 31 | 1.0 | 1.0 | 0.00 | 0.00 | 0.00 | 60 | 1021.1 |
| 20260502121514 | 48 | 59 | 0.0 | 2.0 | 0.00 | 0.00 | 0.00 | 60 | 1021.1 |
| 20260502121011 | 47 | 129 | 1.0 | 1.0 | 0.00 | 0.00 | 0.00 | 62 | 1021.2 |
| 20260502120507 | 46 | 120 | 0.0 | 1.0 | 0.00 | 0.00 | 0.00 | 64 | 1021.1 |
| 20260502115502 | 45 | 346 | 0.0 | 0.0 | 0.00 | 0.00 | 0.00 | 65 | 1021.2 |
| 20260502114957 | 44 | 346 | 0.0 | 0.0 | 0.00 | 0.00 | 0.00 | 64 | 1021.1 |
| 20260502114454 | 45 | 346 | 0.0 | 0.0 | 0.00 | 0.00 | 0.00 | 62 | 1021.2 |
| 20260502113952 | 45 | 346 | 0.0 | 1.0 | 0.00 | 0.00 | 0.00 | 62 | 1021.0 |
| 20260502113449 | 44 | 346 | 0.0 | 1.0 | 0.00 | 0.00 | 0.00 | 62 | 1021.2 |
| 20260502112948 | 44 | 346 | 0.0 | 0.0 | 0.00 | 0.00 | 0.00 | 61 | 1021.2 |
| 20260502112445 | 44 | 346 | 0.0 | 1.0 | 0.00 | 0.00 | 0.00 | 60 | 1021.2 |
| 20260502111942 | 44 | 346 | 1.0 | 1.0 | 0.00 | 0.00 | 0.00 | 60 | 1021.3 |
| 20260502111440 | 44 | 346 | 0.0 | 0.0 | 0.00 | 0.00 | 0.00 | 58 | 1021.0 |
| 20260502110937 | 45 | 346 | 0.0 | 0.0 | 0.00 | 0.00 | 0.00 | 56 | 1021.0 |
| 20260502110435 | 46 | 346 | 0.0 | 1.0 | 0.00 | 0.00 | 0.00 | 55 | 1021.1 |
| 20260502105931 | 45 | 346 | 0.0 | 0.0 | 0.00 | 0.00 | 0.00 | 55 | 1021.0 |
| 20260502105428 | 45 | 346 | 0.0 | 0.0 | 0.00 | 0.00 | 0.00 | 56 | 1021.2 |
| 20260502104926 | 44 | 346 | 0.0 | 0.0 | 0.00 | 0.00 | 0.00 | 57 | 1021.1 |
| 20260502104423 | 44 | 346 | 0.0 | 0.0 | 0.00 | 0.00 | 0.00 | 58 | 1021.1 |
| 20260502103920 | 43 | 346 | 0.0 | 0.0 | 0.00 | 0.00 | 0.00 | 59 | 1021.0 |
| 20260502103418 | 43 | 346 | 0.0 | 0.0 | 0.00 | 0.00 | 0.00 | 58 | 1021.0 |
| 20260502102915 | 43 | 346 | 0.0 | 0.0 | 0.00 | 0.00 | 0.00 | 58 | 1021.3 |
| 20260502102412 | 43 | 346 | 0.0 | 1.0 | 0.00 | 0.00 | 0.00 | 59 | 1021.1 |
| 20260502101909 | 42 | 346 | 0.0 | 0.0 | 0.00 | 0.00 | 0.00 | 61 | 1021.0 |
| 20260502101408 | 42 | 346 | 0.0 | 0.0 | 0.00 | 0.00 | 0.00 | 62 | 1021.2 |
| 20260502100905 | 42 | 346 | 0.0 | 0.0 | 0.00 | 0.00 | 0.00 | 61 | 1021.1 |
| 20260502100404 | 42 | 346 | 0.0 | 0.0 | 0.00 | 0.00 | 0.00 | 61 | 1021.1 |
| 20260502091337 | 43 | 346 | 0.0 | 0.0 | 0.00 | 0.00 | 0.00 | 57 | 1020.8 |
| 20260502090836 | 43 | 346 | 0.0 | 0.0 | 0.00 | 0.00 | 0.00 | 56 | 1020.9 |
| 20260502090332 | 44 | 346 | 0.0 | 0.0 | 0.00 | 0.00 | 0.00 | 56 | 1020.9 |
| 20260502071227 | 49 | 259 | 2.0 | 2.0 | 0.00 | 0.00 | 0.00 | 43 | 1021.2 |
| 20260502070725 | 48 | 4 | 1.0 | 1.0 | 0.00 | 0.00 | 0.00 | 45 | 1021.3 |
| 20260502070223 | 48 | 11 | 0.0 | 1.0 | 0.00 | 0.00 | 0.00 | 46 | 1021.1 |
| 20260502065721 | 49 | 13 | 0.0 | 0.0 | 0.00 | 0.00 | 0.00 | 45 | 1021.0 |
| 20260502065219 | 49 | 12 | 0.0 | 0.0 | 0.00 | 0.00 | 0.00 | 44 | 1021.0 |
| 20260502064717 | 49 | 277 | 1.0 | 3.0 | 0.00 | 0.00 | 0.00 | 44 | 1021.1 |
| 20260502064215 | 49 | 258 | 1.0 | 2.0 | 0.00 | 0.00 | 0.00 | 44 | 1021.1 |
| 20260502063712 | 48 | 337 | 1.0 | 1.0 | 0.00 | 0.00 | 0.00 | 45 | 1021.0 |
| 20260502063209 | 48 | 352 | 1.0 | 1.0 | 0.00 | 0.00 | 0.00 | 47 | 1021.1 |
| 20260502062706 | 48 | 34 | 0.0 | 0.0 | 0.00 | 0.00 | 0.00 | 47 | 1021.1 |
| 20260502062203 | 48 | 34 | 0.0 | 0.0 | 0.00 | 0.00 | 0.00 | 46 | 1020.9 |
| 20260502061702 | 48 | 34 | 0.0 | 0.0 | 0.00 | 0.00 | 0.00 | 45 | 1021.1 |
| 20260502061159 | 49 | 34 | 0.0 | 0.0 | 0.00 | 0.00 | 0.00 | 44 | 1021.1 |
| 20260502060654 | 50 | 34 | 0.0 | 0.0 | 0.00 | 0.00 | 0.00 | 43 | 1020.9 |
| 20260502060151 | 50 | 34 | 0.0 | 0.0 | 0.00 | 0.00 | 0.00 | 41 | 1020.9 |
| 20260502055648 | 50 | 37 | 0.0 | 1.0 | 0.00 | 0.00 | 0.00 | 42 | 1021.0 |
| 20260502055146 | 50 | 40 | 0.0 | 1.0 | 0.00 | 0.00 | 0.00 | 42 | 1021.2 |
| 20260502054645 | 49 | 78 | 0.0 | 1.0 | 0.00 | 0.00 | 0.00 | 43 | 1020.9 |
| 20260502054142 | 48 | 28 | 1.0 | 1.0 | 0.00 | 0.00 | 0.00 | 47 | 1020.8 |
| 20260502053639 | 48 | 28 | 0.0 | 0.0 | 0.00 | 0.00 | 0.00 | 48 | 1020.9 |
| 20260502053136 | 48 | 28 | 0.0 | 0.0 | 0.00 | 0.00 | 0.00 | 47 | 1021.0 |
| 20260502052635 | 49 | 28 | 0.0 | 0.0 | 0.00 | 0.00 | 0.00 | 46 | 1020.9 |
| 20260502052132 | 49 | 28 | 0.0 | 0.0 | 0.00 | 0.00 | 0.00 | 44 | 1020.8 |
| 20260502051630 | 50 | 28 | 0.0 | 0.0 | 0.00 | 0.00 | 0.00 | 44 | 1020.9 |
| 20260502051128 | 50 | 28 | 0.0 | 0.0 | 0.00 | 0.00 | 0.00 | 43 | 1020.5 |
| 20260502050624 | 51 | 28 | 0.0 | 0.0 | 0.00 | 0.00 | 0.00 | 43 | 1020.8 |
| 20260502050121 | 51 | 28 | 1.0 | 1.0 | 0.00 | 0.00 | 0.00 | 43 | 1020.9 |
| 20260502045617 | 51 | 29 | 1.0 | 1.0 | 0.00 | 0.00 | 0.00 | 42 | 1020.7 |
| 20260502045115 | 51 | 29 | 1.0 | 1.0 | 0.00 | 0.00 | 0.00 | 42 | 1020.9 |
| 20260502044611 | 51 | 30 | 0.0 | 0.0 | 0.00 | 0.00 | 0.00 | 43 | 1021.0 |
| 20260502044108 | 52 | 30 | 0.0 | 0.0 | 0.00 | 0.00 | 0.00 | 41 | 1020.9 |
| 20260502043606 | 52 | 14 | 1.0 | 1.0 | 0.00 | 0.00 | 0.00 | 40 | 1020.8 |
| 20260502043102 | 52 | 48 | 0.0 | 0.0 | 0.00 | 0.00 | 0.00 | 40 | 1020.9 |
| 20260502042557 | 52 | 55 | 0.0 | 0.0 | 0.00 | 0.00 | 0.00 | 39 | 1020.9 |
| 20260502042055 | 52 | 55 | 0.0 | 0.0 | 0.00 | 0.00 | 0.00 | 40 | 1020.7 |
| 20260502041553 | 52 | 20 | 0.0 | 0.0 | 0.00 | 0.00 | 0.00 | 41 | 1020.8 |
| 20260502041049 | 52 | 20 | 0.0 | 0.0 | 0.00 | 0.00 | 0.00 | 42 | 1020.7 |
| 20260502040546 | 52 | 20 | 0.0 | 0.0 | 0.00 | 0.00 | 0.00 | 41 | 1020.5 |
| 20260502040043 | 52 | 20 | 0.0 | 0.0 | 0.00 | 0.00 | 0.00 | 40 | 1020.7 |
| 20260502035539 | 53 | 20 | 0.0 | 0.0 | 0.00 | 0.00 | 0.00 | 39 | 1020.4 |
| 20260502035037 | 53 | 19 | 0.0 | 0.0 | 0.00 | 0.00 | 0.00 | 38 | 1020.4 |
| 20260502034535 | 53 | 19 | 1.0 | 1.0 | 0.00 | 0.00 | 0.00 | 38 | 1020.3 |
| 20260502034033 | 54 | 20 | 0.0 | 0.0 | 0.00 | 0.00 | 0.00 | 37 | 1020.5 |
| 20260502033530 | 54 | 19 | 0.0 | 1.0 | 0.00 | 0.00 | 0.00 | 37 | 1020.3 |
| 20260502033027 | 54 | 25 | 1.0 | 1.0 | 0.00 | 0.00 | 0.00 | 37 | 1020.0 |
| 20260502032523 | 54 | 33 | 0.0 | 0.0 | 0.00 | 0.00 | 0.00 | 36 | 1020.1 |
| 20260502032020 | 55 | 33 | 0.0 | 0.0 | 0.00 | 0.00 | 0.00 | 36 | 1020.1 |
| 20260502031518 | 55 | 33 | 0.0 | 0.0 | 0.00 | 0.00 | 0.00 | 36 | 1020.0 |
| 20260502031016 | 55 | 33 | 0.0 | 1.0 | 0.00 | 0.00 | 0.00 | 36 | 1019.9 |
| 20260502030514 | 55 | 33 | 0.0 | 0.0 | 0.00 | 0.00 | 0.00 | 36 | 1019.7 |
| 20260502030011 | 55 | 33 | 0.0 | 0.0 | 0.00 | 0.00 | 0.00 | 34 | 1019.5 |
| 20260502025509 | 56 | 33 | 0.0 | 0.0 | 0.00 | 0.00 | 0.00 | 33 | 1019.5 |
| 20260502025007 | 57 | 33 | 0.0 | 0.0 | 0.00 | 0.00 | 0.00 | 33 | 1019.5 |
| 20260502024504 | 57 | 33 | 0.0 | 0.0 | 0.00 | 0.00 | 0.00 | 32 | 1019.5 |
| 20260502024003 | 57 | 35 | 0.0 | 0.0 | 0.00 | 0.00 | 0.00 | 31 | 1019.6 |
| 20260502023459 | 58 | 35 | 0.0 | 0.0 | 0.00 | 0.00 | 0.00 | 29 | 1019.5 |
| 20260502022957 | 58 | 35 | 0.0 | 1.0 | 0.00 | 0.00 | 0.00 | 29 | 1019.6 |
| 20260502022453 | 59 | 37 | 0.0 | 1.0 | 0.00 | 0.00 | 0.00 | 29 | 1019.3 |
| 20260502021950 | 59 | 39 | 0.0 | 1.0 | 0.00 | 0.00 | 0.00 | 28 | 1019.4 |
| 20260502021448 | 59 | 43 | 0.0 | 0.0 | 0.00 | 0.00 | 0.00 | 28 | 1019.3 |
| 20260502020944 | 60 | 37 | 0.0 | 1.0 | 0.00 | 0.00 | 0.00 | 28 | 1019.3 |
| 20260502020443 | 60 | 40 | 0.0 | 1.0 | 0.00 | 0.00 | 0.00 | 27 | 1019.3 |
| 20260502015939 | 61 | 32 | 0.0 | 3.0 | 0.00 | 0.00 | 0.00 | 27 | 1019.4 |
| 20260502015437 | 61 | 9 | 0.0 | 1.0 | 0.00 | 0.00 | 0.00 | 26 | 1019.2 |
| 20260502014933 | 62 | 13 | 1.0 | 6.0 | 0.00 | 0.00 | 0.00 | 26 | 1019.2 |
| 20260502014430 | 62 | 9 | 1.0 | 6.0 | 0.00 | 0.00 | 0.00 | 26 | 1019.2 |
| 20260502013926 | 63 | 35 | 0.0 | 3.0 | 0.00 | 0.00 | 0.00 | 25 | 1019.2 |
| 20260502013421 | 64 | 57 | 0.0 | 3.0 | 0.00 | 0.00 | 0.00 | 25 | 1019.2 |
| 20260502012918 | 65 | 29 | 0.0 | 7.0 | 0.00 | 0.00 | 0.00 | 24 | 1019.0 |
| 20260502012416 | 66 | 272 | 5.0 | 7.0 | 0.00 | 0.00 | 0.00 | 23 | 1019.2 |
| 20260502011908 | 66 | 39 | 0.0 | 1.0 | 0.00 | 0.00 | 0.00 | 24 | 1019.2 |
| 20260502011404 | 66 | 74 | 0.0 | 2.0 | 0.00 | 0.00 | 0.00 | 24 | 1019.2 |
| 20260502010902 | 66 | 54 | 2.0 | 6.0 | 0.00 | 0.00 | 0.00 | 24 | 1019.2 |
| 20260502010358 | 66 | 261 | 2.0 | 4.0 | 0.00 | 0.00 | 0.00 | 24 | 1019.0 |
| 20260502005855 | 67 | 311 | 2.0 | 6.0 | 0.00 | 0.00 | 0.00 | 23 | 1019.0 |
| 20260502005353 | 68 | 281 | 2.0 | 3.0 | 0.00 | 0.00 | 0.00 | 23 | 1019.3 |
| 20260502004850 | 68 | 60 | 0.0 | 1.0 | 0.00 | 0.00 | 0.00 | 24 | 1019.0 |
| 20260502004346 | 67 | 58 | 1.0 | 3.0 | 0.00 | 0.00 | 0.00 | 24 | 1019.0 |
| 20260502003843 | 67 | 328 | 0.0 | 2.0 | 0.00 | 0.00 | 0.00 | 24 | 1019.0 |
| 20260502003340 | 68 | 341 | 1.0 | 7.0 | 0.00 | 0.00 | 0.00 | 23 | 1019.0 |
| 20260502002837 | 68 | 47 | 2.0 | 2.0 | 0.00 | 0.00 | 0.00 | 23 | 1019.2 |
| 20260502002334 | 69 | 269 | 2.0 | 6.0 | 0.00 | 0.00 | 0.00 | 23 | 1019.0 |
| 20260502001831 | 69 | 262 | 1.0 | 2.0 | 0.00 | 0.00 | 0.00 | 23 | 1019.2 |
| 20260502001329 | 70 | 39 | 0.0 | 2.0 | 0.00 | 0.00 | 0.00 | 22 | 1019.0 |
| 20260502000826 | 70 | 59 | 1.0 | 3.0 | 0.00 | 0.00 | 0.00 | 22 | 1019.3 |
| 20260502000325 | 69 | 57 | 1.0 | 3.0 | 0.00 | 0.00 | 0.00 | 23 | 1019.2 |
| 20260501235820 | 70 | 280 | 6.0 | 9.0 | 0.00 | 0.00 | 0.00 | 22 | 1019.0 |
| 20260501235316 | 69 | 55 | 1.0 | 4.0 | 0.00 | 0.00 | 0.00 | 22 | 1019.4 |
| 20260501234811 | 70 | 251 | 2.0 | 2.0 | 0.00 | 0.00 | 0.00 | 22 | 1019.0 |
| 20260501234309 | 70 | 1 | 1.0 | 2.0 | 0.00 | 0.00 | 0.00 | 23 | 1019.3 |
| 20260501233808 | 70 | 34 | 2.0 | 3.0 | 0.00 | 0.00 | 0.00 | 22 | 1019.4 |
| 20260501233304 | 71 | 57 | 1.0 | 6.0 | 0.00 | 0.00 | 0.00 | 22 | 1019.4 |
| 20260501232759 | 70 | 59 | 0.0 | 2.0 | 0.00 | 0.00 | 0.00 | 22 | 1019.5 |
| 20260501232257 | 70 | 262 | 2.0 | 6.0 | 0.00 | 0.00 | 0.00 | 22 | 1019.4 |
| 20260501231755 | 70 | 274 | 2.0 | 3.0 | 0.00 | 0.00 | 0.00 | 22 | 1019.4 |
| 20260501231253 | 70 | 71 | 1.0 | 3.0 | 0.00 | 0.00 | 0.00 | 22 | 1019.4 |
| 20260501230751 | 70 | 49 | 0.0 | 2.0 | 0.00 | 0.00 | 0.00 | 22 | 1019.4 |
| 20260501230249 | 70 | 294 | 1.0 | 3.0 | 0.00 | 0.00 | 0.00 | 22 | 1019.3 |
| 20260501225746 | 70 | 82 | 0.0 | 2.0 | 0.00 | 0.00 | 0.00 | 21 | 1019.5 |
| 20260501225244 | 70 | 85 | 1.0 | 7.0 | 0.00 | 0.00 | 0.00 | 23 | 1019.4 |
| 20260501224739 | 71 | 261 | 6.0 | 9.0 | 0.00 | 0.00 | 0.00 | 21 | 1019.3 |
| 20260501224237 | 70 | 33 | 1.0 | 6.0 | 0.00 | 0.00 | 0.00 | 22 | 1019.5 |
| 20260501223733 | 71 | 33 | 1.0 | 4.0 | 0.00 | 0.00 | 0.00 | 22 | 1019.5 |
| 20260501223230 | 71 | 37 | 0.0 | 3.0 | 0.00 | 0.00 | 0.00 | 21 | 1019.6 |
| 20260501222726 | 71 | 67 | 1.0 | 2.0 | 0.00 | 0.00 | 0.00 | 22 | 1019.7 |
| 20260501222223 | 71 | 319 | 1.0 | 3.0 | 0.00 | 0.00 | 0.00 | 21 | 1019.5 |
| 20260501221720 | 71 | 17 | 1.0 | 3.0 | 0.00 | 0.00 | 0.00 | 20 | 1019.7 |
| 20260501221217 | 70 | 59 | 1.0 | 7.0 | 0.00 | 0.00 | 0.00 | 21 | 1019.7 |
| 20260501220715 | 71 | 231 | 2.0 | 4.0 | 0.00 | 0.00 | 0.00 | 20 | 1019.9 |
| 20260501220212 | 71 | 349 | 1.0 | 9.0 | 0.00 | 0.00 | 0.00 | 20 | 1019.7 |
| 20260501215709 | 71 | 61 | 3.0 | 4.0 | 0.00 | 0.00 | 0.00 | 20 | 1020.0 |
| 20260501215204 | 71 | 42 | 1.0 | 4.0 | 0.00 | 0.00 | 0.00 | 20 | 1019.9 |
| 20260501214659 | 70 | 42 | 0.0 | 2.0 | 0.00 | 0.00 | 0.00 | 20 | 1019.9 |
| 20260501214155 | 70 | 258 | 4.0 | 4.0 | 0.00 | 0.00 | 0.00 | 19 | 1020.0 |
| 20260501213652 | 71 | 289 | 4.0 | 6.0 | 0.00 | 0.00 | 0.00 | 20 | 1019.9 |
| 20260501213148 | 71 | 51 | 0.0 | 1.0 | 0.00 | 0.00 | 0.00 | 20 | 1020.1 |
| 20260501212644 | 70 | 61 | 0.0 | 1.0 | 0.00 | 0.00 | 0.00 | 20 | 1020.0 |
| 20260501212141 | 70 | 19 | 2.0 | 7.0 | 0.00 | 0.00 | 0.00 | 21 | 1020.1 |
| 20260501211638 | 71 | 44 | 2.0 | 3.0 | 0.00 | 0.00 | 0.00 | 21 | 1020.3 |
| 20260501211136 | 72 | 272 | 3.0 | 4.0 | 0.00 | 0.00 | 0.00 | 22 | 1020.2 |
| 20260501210632 | 72 | 54 | 2.0 | 2.0 | 0.00 | 0.00 | 0.00 | 21 | 1020.1 |
| 20260501210129 | 71 | 317 | 3.0 | 4.0 | 0.00 | 0.00 | 0.00 | 22 | 1020.1 |
| 20260501205625 | 72 | 247 | 1.0 | 3.0 | 0.00 | 0.00 | 0.00 | 21 | 1020.4 |
| 20260501205123 | 71 | 27 | 1.0 | 3.0 | 0.00 | 0.00 | 0.00 | 22 | 1020.2 |
| 20260501204619 | 70 | 171 | 1.0 | 3.0 | 0.00 | 0.00 | 0.00 | 22 | 1020.4 |
| 20260501204115 | 69 | 58 | 1.0 | 2.0 | 0.00 | 0.00 | 0.00 | 21 | 1020.2 |
| 20260501203612 | 69 | 257 | 4.0 | 4.0 | 0.00 | 0.00 | 0.00 | 21 | 1020.3 |
| 20260501203109 | 67 | 25 | 2.0 | 3.0 | 0.00 | 0.00 | 0.00 | 23 | 1020.2 |
| 20260501202606 | 67 | 52 | 2.0 | 6.0 | 0.00 | 0.00 | 0.00 | 23 | 1020.3 |
| 20260501202103 | 67 | 275 | 2.0 | 6.0 | 0.00 | 0.00 | 0.00 | 22 | 1020.2 |
| 20260501201600 | 70 | 248 | 4.0 | 6.0 | 0.00 | 0.00 | 0.00 | 20 | 1020.1 |
| 20260501201056 | 68 | 66 | 1.0 | 2.0 | 0.00 | 0.00 | 0.00 | 22 | 1020.4 |
| 20260501200554 | 69 | 39 | 1.0 | 8.0 | 0.00 | 0.00 | 0.00 | 22 | 1020.2 |
| 20260501200051 | 69 | 37 | 0.0 | 1.0 | 0.00 | 0.00 | 0.00 | 22 | 1020.2 |
| 20260501195548 | 68 | 59 | 0.0 | 2.0 | 0.00 | 0.00 | 0.00 | 21 | 1020.4 |
| 20260501195044 | 66 | 33 | 0.0 | 7.0 | 0.00 | 0.00 | 0.00 | 24 | 1020.3 |
| 20260501194539 | 66 | 118 | 1.0 | 7.0 | 0.00 | 0.00 | 0.00 | 23 | 1020.5 |
| 20260501194035 | 68 | 283 | 3.0 | 4.0 | 0.00 | 0.00 | 0.00 | 22 | 1020.4 |
| 20260501193533 | 69 | 281 | 2.0 | 3.0 | 0.00 | 0.00 | 0.00 | 21 | 1020.4 |
| 20260501193032 | 67 | 57 | 0.0 | 3.0 | 0.00 | 0.00 | 0.00 | 23 | 1020.5 |
| 20260501192528 | 68 | 279 | 4.0 | 7.0 | 0.00 | 0.00 | 0.00 | 22 | 1020.5 |
| 20260501192026 | 68 | 27 | 1.0 | 3.0 | 0.00 | 0.00 | 0.00 | 23 | 1020.7 |
| 20260501191522 | 67 | 130 | 1.0 | 3.0 | 0.00 | 0.00 | 0.00 | 23 | 1020.8 |
| 20260501191020 | 67 | 268 | 2.0 | 3.0 | 0.00 | 0.00 | 0.00 | 23 | 1020.7 |
| 20260501190515 | 66 | 13 | 1.0 | 2.0 | 0.00 | 0.00 | 0.00 | 24 | 1020.8 |
| 20260501190011 | 66 | 291 | 2.0 | 7.0 | 0.00 | 0.00 | 0.00 | 22 | 1020.9 |
| 20260501185507 | 68 | 47 | 1.0 | 8.0 | 0.00 | 0.00 | 0.00 | 21 | 1020.9 |
| 20260501185003 | 70 | 258 | 2.0 | 4.0 | 0.00 | 0.00 | 0.00 | 21 | 1020.8 |
| 20260501184459 | 69 | 69 | 0.0 | 1.0 | 0.00 | 0.00 | 0.00 | 21 | 1021.0 |
| 20260501183954 | 68 | 87 | 0.0 | 1.0 | 0.00 | 0.00 | 0.00 | 21 | 1021.1 |
| 20260501183452 | 66 | 43 | 0.0 | 2.0 | 0.00 | 0.00 | 0.00 | 22 | 1021.2 |
| 20260501182948 | 66 | 356 | 1.0 | 2.0 | 0.00 | 0.00 | 0.00 | 21 | 1021.1 |
| 20260501182445 | 67 | 226 | 3.0 | 3.0 | 0.00 | 0.00 | 0.00 | 21 | 1020.9 |
| 20260501181941 | 66 | 56 | 2.0 | 2.0 | 0.00 | 0.00 | 0.00 | 22 | 1021.1 |
| 20260501181439 | 67 | 70 | 5.0 | 6.0 | 0.00 | 0.00 | 0.00 | 21 | 1021.3 |
| 20260501180936 | 68 | 71 | 1.0 | 2.0 | 0.00 | 0.00 | 0.00 | 22 | 1021.2 |
| 20260501180433 | 67 | 19 | 1.0 | 3.0 | 0.00 | 0.00 | 0.00 | 24 | 1021.3 |
| 20260501175929 | 67 | 288 | 2.0 | 3.0 | 0.00 | 0.00 | 0.00 | 22 | 1021.5 |
| 20260501175426 | 66 | 57 | 0.0 | 2.0 | 0.00 | 0.00 | 0.00 | 22 | 1021.2 |
| 20260501174923 | 67 | 67 | 3.0 | 3.0 | 0.00 | 0.00 | 0.00 | 21 | 1021.2 |
| 20260501174421 | 66 | 174 | 1.0 | 2.0 | 0.00 | 0.00 | 0.00 | 22 | 1021.3 |
| 20260501173918 | 64 | 84 | 1.0 | 2.0 | 0.00 | 0.00 | 0.00 | 22 | 1021.3 |
| 20260501173416 | 66 | 63 | 1.0 | 2.0 | 0.00 | 0.00 | 0.00 | 22 | 1021.5 |
| 20260501172911 | 66 | 107 | 2.0 | 3.0 | 0.00 | 0.00 | 0.00 | 22 | 1021.2 |
| 20260501172407 | 67 | 65 | 4.0 | 7.0 | 0.00 | 0.00 | 0.00 | 21 | 1021.5 |
| 20260501171902 | 65 | 63 | 0.0 | 1.0 | 0.00 | 0.00 | 0.00 | 23 | 1021.5 |
| 20260501171359 | 64 | 63 | 3.0 | 4.0 | 0.00 | 0.00 | 0.00 | 23 | 1021.3 |
| 20260501170855 | 63 | 283 | 2.0 | 2.0 | 0.00 | 0.00 | 0.00 | 25 | 1021.3 |
| 20260501170352 | 64 | 289 | 2.0 | 3.0 | 0.00 | 0.00 | 0.00 | 26 | 1021.5 |
| 20260501165850 | 63 | 62 | 0.0 | 2.0 | 0.00 | 0.00 | 0.00 | 27 | 1021.5 |
| 20260501165348 | 63 | 63 | 0.0 | 4.0 | 0.00 | 0.00 | 0.00 | 29 | 1021.6 |
| 20260501164845 | 62 | 54 | 0.0 | 1.0 | 0.00 | 0.00 | 0.00 | 27 | 1021.3 |
| 20260501164343 | 62 | 61 | 0.0 | 7.0 | 0.00 | 0.00 | 0.00 | 29 | 1021.6 |
| 20260501163838 | 62 | 61 | 1.0 | 2.0 | 0.00 | 0.00 | 0.00 | 27 | 1021.5 |
| 20260501163335 | 62 | 13 | 1.0 | 3.0 | 0.00 | 0.00 | 0.00 | 28 | 1021.5 |
| 20260501162832 | 62 | 70 | 4.0 | 6.0 | 0.00 | 0.00 | 0.00 | 28 | 1021.5 |
| 20260501162329 | 61 | 75 | 1.0 | 1.0 | 0.00 | 0.00 | 0.00 | 28 | 1021.5 |
| 20260501161826 | 61 | 93 | 1.0 | 2.0 | 0.00 | 0.00 | 0.00 | 28 | 1021.3 |
| 20260501161323 | 62 | 33 | 1.0 | 2.0 | 0.00 | 0.00 | 0.00 | 27 | 1021.6 |
| 20260501160819 | 61 | 66 | 1.0 | 1.0 | 0.00 | 0.00 | 0.00 | 29 | 1021.5 |
| 20260501160316 | 61 | 82 | 1.0 | 1.0 | 0.00 | 0.00 | 0.00 | 28 | 1021.3 |